• In Belarus
  • List of Countries
  • For 7 days
  • Water Temperature
  • Satellite Maps
  • Weather Map
  • Weather Widgets
  • user-avatar
    Login

    Hourly Weather Vorohta

    Today, 25 June, Monday

    Time Temperature Precipitation Wind Pressure Humidity
    00:00 +10°C° 0 mm 1 mps 688 mmHg 93%
    01:00 +10°C° 0 mm 1 mps 688 mmHg 96%
    02:00 +10°C° 0 mm 1 mps 688 mmHg 97%
    03:00 +10°C° 0 mm 1 mps 688 mmHg 97%
    04:00 +9°C° 0 mm 2 mps 688 mmHg 99%
    05:00 +10°C° 0 mm 1 mps 688 mmHg 100%
    06:00 +10°C° 0 mm 1 mps 688 mmHg 100%
    07:00 +12°C° 0 mm 2 mps 689 mmHg 100%
    08:00 +13°C° 0 mm 2 mps 690 mmHg 98%
    09:00 +14°C° 0 mm 3 mps 690 mmHg 93%
    10:00 +14°C° 0 mm 3 mps 691 mmHg 90%
    11:00 +16°C° 0 mm 3 mps 691 mmHg 90%
    12:00 +17°C° 0 mm 2 mps 691 mmHg 84%
    13:00 +17°C° 0 mm 4 mps 691 mmHg 84%
    14:00 +15°C° 0.2 mm 4 mps 690 mmHg 95%
    15:00 +18°C° 0 mm 3 mps 691 mmHg 88%
    16:00 +18°C° 0 mm 3 mps 690 mmHg 83%
    17:00 +18°C° 0 mm 3 mps 690 mmHg 86%
    18:00 +17°C° 0 mm 3 mps 690 mmHg 87%
    19:00 +17°C° 0 mm 2 mps 690 mmHg 89%
    20:00 +16°C° 0 mm 2 mps 690 mmHg 100%
    21:00 +14°C° 0 mm 1 mps 690 mmHg 100%
    22:00 +14°C° 0 mm 1 mps 690 mmHg 100%
    23:00 +14°C° 0 mm 1 mps 690 mmHg 100%

    Tomorrow, 26 June, Tuesday

    Time Temperature Precipitation Wind Pressure Humidity
    00:00 +13°C° 0 mm 1 mps 690 mmHg 100%
    01:00 +13°C° 0 mm 1 mps 690 mmHg 94%
    02:00 +13°C° 0 mm 1 mps 690 mmHg 91%
    03:00 +12°C° 0 mm 0 mps 690 mmHg 87%
    04:00 +12°C° 0 mm 0 mps 689 mmHg 86%
    05:00 +13°C° 0 mm 1 mps 690 mmHg 89%
    06:00 +12°C° 0 mm 0 mps 689 mmHg 94%
    07:00 +12°C° 0 mm 0 mps 690 mmHg 100%
    08:00 +15°C° 0 mm 1 mps 690 mmHg 100%
    09:00 +16°C° 0 mm 1 mps 690 mmHg 100%
    10:00 +17°C° 0 mm 2 mps 691 mmHg 100%
    11:00 +17°C° 0 mm 3 mps 690 mmHg 98%
    12:00 +18°C° 0.3 mm 3 mps 690 mmHg 100%
    13:00 +16°C° 3.8 mm 2 mps 690 mmHg 99%
    14:00 +17°C° 0.8 mm 3 mps 690 mmHg 93%
    15:00 +16°C° 0.2 mm 5 mps 689 mmHg 98%
    16:00 +19°C° 0.2 mm 1 mps 689 mmHg 91%
    17:00 +18°C° 0 mm 2 mps 689 mmHg 97%
    18:00 +18°C° 0.2 mm 1 mps 688 mmHg 100%
    19:00 +18°C° 0 mm 1 mps 689 mmHg 100%
    20:00 +16°C° 0 mm 2 mps 689 mmHg 100%
    21:00 +16°C° 0 mm 1 mps 689 mmHg 100%
    22:00 +15°C° 0 mm 2 mps 688 mmHg 100%
    23:00 +14°C° 0 mm 3 mps 688 mmHg 100%

    Day after tomorrow, 27 June, Wednesday

    Time Temperature Precipitation Wind Pressure Humidity
    00:00 +14°C° 0 mm 3 mps 688 mmHg 100%
    01:00 +15°C° 0 mm 2 mps 688 mmHg 100%
    02:00 +14°C° 0 mm 3 mps 688 mmHg 100%
    03:00 +16°C° 0 mm 2 mps 688 mmHg 97%
    04:00 +15°C° 0.1 mm 2 mps 688 mmHg 100%
    05:00 +12°C° 3.2 mm 3 mps 688 mmHg 100%
    06:00 +13°C° 1.5 mm 1 mps 687 mmHg 100%
    07:00 +13°C° 0.7 mm 1 mps 687 mmHg 100%
    08:00 +14°C° 0.2 mm 1 mps 687 mmHg 100%
    09:00 +15°C° 0.1 mm 1 mps 688 mmHg 100%
    10:00 +15°C° 0.1 mm 1 mps 688 mmHg 100%
    11:00 +15°C° 0.1 mm 2 mps 688 mmHg 100%
    12:00 +15°C° 0 mm 4 mps 688 mmHg 100%
    13:00 +18°C° 0 mm 4 mps 687 mmHg 99%
    14:00 +18°C° 0 mm 4 mps 687 mmHg 95%
    15:00 +19°C° 0 mm 4 mps 687 mmHg 97%
    16:00 +19°C° 0 mm 4 mps 686 mmHg 100%
    17:00 +19°C° 0 mm 5 mps 686 mmHg 100%
    18:00 +19°C° 0.4 mm 5 mps 685 mmHg 100%
    19:00 +17°C° 0.1 mm 5 mps 684 mmHg 100%
    20:00 +17°C° 1.2 mm 5 mps 684 mmHg 100%
    21:00 +17°C° 0.6 mm 7 mps 683 mmHg 100%
    22:00 +17°C° 10.9 mm 5 mps 681 mmHg 100%
    23:00 +17°C° 29.6 mm 10 mps 680 mmHg 100%

    28 June, Thursday

    Time Temperature Precipitation Wind Pressure Humidity
    00:00 +18°C° 6.8 mm 8 mps 680 mmHg 100%
    01:00 +17°C° 2.5 mm 7 mps 680 mmHg 100%
    02:00 +17°C° 0.2 mm 7 mps 680 mmHg 100%
    03:00 +17°C° 0 mm 7 mps 679 mmHg 100%
    04:00 +17°C° 0 mm 6 mps 680 mmHg 100%
    05:00 +17°C° 0 mm 4 mps 680 mmHg 100%
    06:00 +17°C° 0 mm 4 mps 680 mmHg 100%
    07:00 +16°C° 0 mm 5 mps 680 mmHg 100%
    08:00 +16°C° 0 mm 6 mps 681 mmHg 100%
    09:00 +17°C° 0 mm 5 mps 681 mmHg 100%
    10:00 +19°C° 0 mm 4 mps 683 mmHg 97%
    11:00 +18°C° 0 mm 3 mps 683 mmHg 99%
    12:00 +20°C° 0 mm 1 mps 683 mmHg 97%
    13:00 +20°C° 0 mm 2 mps 683 mmHg 97%
    14:00 +20°C° 0.3 mm 2 mps 683 mmHg 100%

    29 June, Friday

    Time Temperature Precipitation Wind Pressure Humidity

    30 June, Saturday

    Time Temperature Precipitation Wind Pressure Humidity
    Show more